This is the latest recevied weather packets stored in our database for station/object SP8PUB-10. If no packets are shown the sender has not sent any weather packets the latest 10 day(s).
| Time | Temp. | Humidity | Pressure | Rain* | Wind** | Luminosity | Snow |
|---|---|---|---|---|---|---|---|
| 1777599320 | 5.56° C | 56% | 1027.2 hPa | - | - | - | - |
| 1777598420 | 5.56° C | 56% | 1027.3 hPa | - | - | - | - |
| 1777597520 | 5° C | 56% | 1027.4 hPa | - | - | - | - |
| 1777596620 | 4.44° C | 56% | 1027.4 hPa | - | - | - | - |
| 1777595720 | 4.44° C | 56% | 1027.4 hPa | - | - | - | - |
| 1777594820 | 4.44° C | 57% | 1027.4 hPa | - | - | - | - |
| 1777593919 | 4.44° C | 58% | 1027.3 hPa | - | - | - | - |
| 1777593018 | 4.44° C | 57% | 1027.4 hPa | - | - | - | - |
| 1777592118 | 5° C | 55% | 1027.3 hPa | - | - | - | - |
| 1777591218 | 5° C | 55% | 1027.4 hPa | - | - | - | - |
| 1777590318 | 6.11° C | 53% | 1027.4 hPa | - | - | - | - |
| 1777589418 | 6.11° C | 52% | 1027.3 hPa | - | - | - | - |
| 1777588518 | 6.67° C | 51% | 1027.5 hPa | - | - | - | - |
| 1777586722 | 6.67° C | 50% | 1027.5 hPa | - | - | - | - |
| 1777585822 | 6.67° C | 49% | 1027.5 hPa | - | - | - | - |
| 1777584922 | 6.67° C | 49% | 1027.4 hPa | - | - | - | - |
| 1777584022 | 6.11° C | 50% | 1027.5 hPa | - | - | - | - |
| 1777583122 | 6.11° C | 49% | 1027.5 hPa | - | - | - | - |
| 1777582222 | 6.11° C | 49% | 1027.5 hPa | - | - | - | - |
| 1777581321 | 6.11° C | 48% | 1027.5 hPa | - | - | - | - |
| 1777580421 | 6.11° C | 48% | 1027.5 hPa | - | - | - | - |
| 1777579521 | 6.11° C | 50% | 1027.5 hPa | - | - | - | - |
| 1777578621 | 6.11° C | 49% | 1027.4 hPa | - | - | - | - |
| 1777577721 | 6.67° C | 46% | 1027.3 hPa | - | - | - | - |
| 1777576821 | 6.67° C | 46% | 1027.4 hPa | - | - | - | - |
* Rain since midnight (hover to see other rain measurements)
** Current wind speed in m/s (hover to see current wind gust speed)